When you browse on this site, cookies collect data to enhance your experience and personalize the content and advertising you see.
Visit our Privacy Policy to learn more. By continuing to use the site, you agree to this use of cookies and data.
  • In Austria
  • List of Countries
  • For 7 days
  • Water Temperature
  • Satellite Maps
  • Weather Map
  • News
  • Weather Widgets
  • user-avatar
    Login

    Hourly Weather Chikosh-Horonda

    Today, 19 December, Wednesday

    Time Temperature Precipitation Wind Pressure Humidity
    00:00 -8°C° 0 mm 2 mps 761 mmHg 100%
    01:00 -9°C° 0 mm 2 mps 761 mmHg 100%
    02:00 -8°C° 0 mm 0 mps 762 mmHg 100%
    03:00 -8°C° 0 mm 1 mps 761 mmHg 100%
    04:00 -9°C° 0 mm 1 mps 761 mmHg 100%
    05:00 -12°C° 0 mm 2 mps 761 mmHg 100%
    06:00 -10°C° 0 mm 1 mps 761 mmHg 100%
    07:00 -11°C° 0 mm 0 mps 762 mmHg 100%
    08:00 -12°C° 0 mm 0 mps 762 mmHg 100%
    09:00 -12°C° 0 mm 1 mps 762 mmHg 100%
    10:00 -12°C° 0 mm 1 mps 762 mmHg 100%
    11:00 -11°C° 0 mm 1 mps 762 mmHg 100%
    12:00 -10°C° 0 mm 1 mps 762 mmHg 97%
    13:00 -8°C° 0 mm 1 mps 762 mmHg 97%
    14:00 -6°C° 0 mm 1 mps 762 mmHg 96%
    15:00 -6°C° 0 mm 0 mps 762 mmHg 96%
    16:00 -6°C° 0 mm 0 mps 761 mmHg 96%
    17:00 -7°C° 0 mm 1 mps 761 mmHg 98%
    18:00 -8°C° 0 mm 1 mps 761 mmHg 99%
    19:00 -8°C° 0 mm 1 mps 761 mmHg 100%
    20:00 -9°C° 0 mm 1 mps 761 mmHg 100%
    21:00 -9°C° 0 mm 1 mps 761 mmHg 100%
    22:00 -9°C° 0 mm 1 mps 761 mmHg 100%
    23:00 -10°C° 0 mm 1 mps 761 mmHg 100%

    Tomorrow, 20 December, Thursday

    Time Temperature Precipitation Wind Pressure Humidity
    00:00 -12°C° 0 mm 2 mps 761 mmHg 98%
    01:00 -12°C° 0 mm 2 mps 760 mmHg 96%
    02:00 -12°C° 0 mm 2 mps 760 mmHg 96%
    03:00 -12°C° 0 mm 2 mps 760 mmHg 97%
    04:00 -10°C° 0 mm 2 mps 760 mmHg 95%
    05:00 -9°C° 0 mm 2 mps 760 mmHg 93%
    06:00 -8°C° 0 mm 1 mps 760 mmHg 91%
    07:00 -8°C° 0 mm 0 mps 760 mmHg 92%
    08:00 -7°C° 0 mm 1 mps 760 mmHg 91%
    09:00 -7°C° 0 mm 1 mps 760 mmHg 90%
    10:00 -7°C° 0 mm 2 mps 760 mmHg 91%
    11:00 -6°C° 0 mm 2 mps 760 mmHg 92%
    12:00 -4°C° 0 mm 3 mps 759 mmHg 90%
    13:00 -2°C° 0 mm 3 mps 759 mmHg 88%
    14:00 -2°C° 0 mm 2 mps 759 mmHg 89%
    15:00 -1°C° 0 mm 2 mps 759 mmHg 92%
    16:00 -1°C° 0 mm 2 mps 758 mmHg 93%
    17:00 -2°C° 0 mm 2 mps 758 mmHg 94%
    18:00 0°C° 0 mm 1 mps 758 mmHg 91%
    19:00 0°C° 0 mm 1 mps 758 mmHg 91%
    20:00 -3°C° 0 mm 2 mps 758 mmHg 93%
    21:00 -3°C° 0 mm 2 mps 759 mmHg 93%
    22:00 -3°C° 0 mm 2 mps 759 mmHg 96%
    23:00 -3°C° 0 mm 2 mps 759 mmHg 97%

    Day after tomorrow, 21 December, Friday

    Time Temperature Precipitation Wind Pressure Humidity
    00:00 -4°C° 0 mm 2 mps 759 mmHg 99%
    01:00 -4°C° 0.1 mm 2 mps 759 mmHg 99%
    02:00 -4°C° 0.7 mm 2 mps 759 mmHg 100%
    03:00 -4°C° 0.6 mm 2 mps 759 mmHg 100%
    04:00 -5°C° 0.5 mm 3 mps 759 mmHg 100%
    05:00 -5°C° 0.5 mm 3 mps 759 mmHg 100%
    06:00 -5°C° 0.4 mm 3 mps 759 mmHg 100%
    07:00 -5°C° 0.3 mm 3 mps 759 mmHg 100%
    08:00 -5°C° 0.3 mm 3 mps 759 mmHg 100%
    09:00 -5°C° 0.3 mm 3 mps 759 mmHg 100%
    10:00 -4°C° 0.4 mm 3 mps 759 mmHg 100%
    11:00 -4°C° 0.3 mm 3 mps 759 mmHg 99%
    12:00 -2°C° 0.2 mm 3 mps 759 mmHg 99%
    13:00 -2°C° 0.2 mm 3 mps 758 mmHg 99%
    14:00 -2°C° 0.1 mm 3 mps 758 mmHg 98%
    15:00 -1°C° 0.5 mm 2 mps 758 mmHg 99%
    16:00 -1°C° 0.2 mm 2 mps 757 mmHg 99%
    17:00 -1°C° 0 mm 3 mps 757 mmHg 100%
    18:00 -1°C° 0.1 mm 3 mps 757 mmHg 100%
    19:00 -1°C° 0.1 mm 3 mps 756 mmHg 100%
    20:00 -2°C° 0.1 mm 4 mps 756 mmHg 100%
    21:00 -2°C° 0 mm 4 mps 755 mmHg 100%
    22:00 -2°C° 0 mm 4 mps 754 mmHg 100%
    23:00 -2°C° 0.1 mm 4 mps 754 mmHg 100%

    22 December, Saturday

    Time Temperature Precipitation Wind Pressure Humidity
    00:00 -2°C° 1.3 mm 5 mps 753 mmHg 100%
    01:00 -2°C° 2.4 mm 4 mps 752 mmHg 100%
    02:00 -1°C° 3.2 mm 2 mps 752 mmHg 100%
    03:00 -1°C° 1 mm 3 mps 752 mmHg 100%
    04:00 -1°C° 0.1 mm 3 mps 751 mmHg 100%
    05:00 -1°C° 0.9 mm 3 mps 751 mmHg 100%
    06:00 -1°C° 1.9 mm 3 mps 750 mmHg 100%
    07:00 -1°C° 3.1 mm 3 mps 751 mmHg 100%
    08:00 -1°C° 2.1 mm 3 mps 751 mmHg 100%
    09:00 -1°C° 0.8 mm 3 mps 751 mmHg 100%
    10:00 -1°C° 0.1 mm 3 mps 751 mmHg 100%
    11:00 -1°C° 0 mm 3 mps 751 mmHg 100%
    12:00 -1°C° 0 mm 3 mps 750 mmHg 100%
    13:00 -1°C° 0 mm 3 mps 750 mmHg 100%
    14:00 -1°C° 0.1 mm 3 mps 749 mmHg 100%
    15:00 +1°C° 1.1 mm 2 mps 749 mmHg 100%
    16:00 0°C° 2.8 mm 3 mps 749 mmHg 100%
    17:00 0°C° 2 mm 3 mps 748 mmHg 100%
    18:00 0°C° 0.2 mm 3 mps 748 mmHg 100%
    19:00 -1°C° 0.1 mm 3 mps 749 mmHg 100%
    20:00 -1°C° 0 mm 3 mps 749 mmHg 100%
    21:00 -1°C° 0 mm 2 mps 749 mmHg 100%
    22:00 +1°C° 0 mm 1 mps 749 mmHg 100%
    23:00 +1°C° 0 mm 1 mps 750 mmHg 100%

    23 December, Sunday

    Time Temperature Precipitation Wind Pressure Humidity
    00:00 -1°C° 0 mm 2 mps 750 mmHg 100%
    01:00 -1°C° 0 mm 2 mps 750 mmHg 100%
    02:00 -2°C° 0 mm 2 mps 750 mmHg 100%

    24 December, Monday

    Time Temperature Precipitation Wind Pressure Humidity
    Show more